Keps
Threads by month
- ----- 2024 -----
- December
- November
- October
- September
- August
- July
- June
- May
- April
- March
- February
- January
- ----- 2023 -----
- December
- November
- October
- September
- August
- July
- June
- May
- April
- March
- February
- January
- ----- 2022 -----
- December
- November
- October
- September
- August
- July
- June
- May
- April
- March
- February
- January
- ----- 2021 -----
- December
- November
- October
- September
- August
- July
- June
- May
- April
- March
- February
- January
- ----- 2020 -----
- December
- November
- October
- September
- August
- July
- June
- May
- April
- March
- February
- January
- ----- 2019 -----
- December
- November
- October
- September
- August
- July
- June
- May
- April
- March
- February
- January
- ----- 2018 -----
- December
- November
- October
- September
- August
- July
- June
- May
- April
- March
- February
- January
- ----- 2017 -----
- December
- November
- October
- September
- August
- July
- June
- May
- April
- March
- February
- January
- ----- 2016 -----
- December
- November
- October
- September
- August
- July
- June
- May
- April
- March
- February
- January
- ----- 2015 -----
- December
- November
- October
- September
- August
- July
- June
- May
- April
- March
- February
- January
- ----- 2014 -----
- December
- November
- October
- September
- August
- July
- June
- May
- April
- March
- February
- January
- ----- 2013 -----
- December
- November
- October
- September
- August
- July
- June
- May
- April
- March
- February
- January
- ----- 2012 -----
- December
- November
- October
- September
- August
- July
- June
- May
- April
- March
- February
- January
- ----- 2011 -----
- December
- November
- October
- September
- August
- July
- June
- May
- April
- March
- February
- January
- ----- 2010 -----
- December
- November
- October
- September
- August
- July
- June
- May
- April
- March
- February
- January
- ----- 2009 -----
- December
- November
- October
- September
- August
- July
- June
- May
- April
- March
- February
- January
- ----- 2008 -----
- December
- November
- October
- September
- August
- July
- June
- May
- April
- March
- February
- January
- ----- 2007 -----
- December
- November
- October
- September
- August
- July
- June
- May
- April
- March
- February
- January
- ----- 2006 -----
- December
- November
- October
- September
November 2013
- 1 participants
- 10 discussions
SB KEPS @ AMSAT $ORB13332.N
2Line Orbital Elements 13332.AMSAT
HR AMSAT ORBITAL ELEMENTS FOR AMATEUR SATELLITES IN NASA FORMAT
FROM WA5QGD FORT WORTH,TX November 28, 2013
BID: ORB13332.N
DECODE 2-LINE ELSETS WITH THE FOLLOWING KEY:
1 AAAAAU 00 0 0 BBBBB.BBBBBBBB .CCCCCCCC 00000-0 00000-0 0 DDDZ
2 AAAAA EEE.EEEE FFF.FFFF GGGGGGG HHH.HHHH III.IIII JJ.JJJJJJJJKKKKKZ
KEY: A-CATALOGNUM B-EPOCHTIME C-DECAY D-ELSETNUM E-INCLINATION F-RAAN
G-ECCENTRICITY H-ARGPERIGEE I-MNANOM J-MNMOTION K-ORBITNUM Z-CHECKSUM
TO ALL RADIO AMATEURS BT
AO-07
1 07530U 74089B 13332.89938240 -.00000049 00000-0 -38960-4 0 8341
2 07530 101.4494 316.5255 0011807 327.9617 064.9184 12.53600424786425
FO-29
1 24278U 96046B 13332.54814240 .00000033 00000-0 66444-4 0 2513
2 24278 098.5328 008.9517 0351547 098.1507 065.8525 13.53009972853539
SO-33
1 25509U 98061B 13332.14161054 .00000366 00000-0 59687-4 0 6361
2 25509 031.4314 219.2402 0350739 153.4682 336.0986 14.29244668788368
RS-22
1 27939U 03042A 13332.76653642 .00000705 00000-0 14068-3 0 9893
2 27939 097.7984 152.0700 0013980 028.5267 331.6702 14.64701867543381
VO-52
1 28650U 05017B 13332.83192385 .00001877 00000-0 22788-3 0 5927
2 28650 097.5622 342.9760 0027292 098.8453 312.3800 14.84391890463506
HO-68
1 36122U 09072B 13332.60476979 -.00000044 00000-0 00000 0 0 1015
2 36122 100.2839 025.3368 0007448 340.6296 019.4534 13.16309257190046
AO-73
1 39417U 13066B 13332.79592390 .00002174 00000-0 30531-3 0 277
2 39417 097.8002 045.2001 0061501 171.9311 188.2922 14.77127274 1106
UO-11
1 14781U 84021B 13332.21793326 .00000794 00000-0 10879-3 0 3487
2 14781 097.8823 031.0084 0010251 114.4934 245.7348 14.81136263598214
AO-16
1 20439U 90005D 13332.41657638 .00000169 00000-0 78786-4 0 8933
2 20439 098.4889 268.7499 0011429 038.7390 108.4822 14.32239195245744
LO-19
1 20442U 90005G 13331.24184476 .00000167 00000-0 77277-4 0 8327
2 20442 098.4588 268.8730 0012268 031.9428 106.1393 14.32446410245773
AO-27
1 22825U 93061C 13332.54996758 .00000128 00000-0 67011-4 0 5360
2 22825 098.6390 274.9796 0008944 159.8716 304.6941 14.29619135 52119
IO-26
1 22826U 93061D 13332.17056801 .00000155 00000-0 77362-4 0 2925
2 22826 098.6332 274.8578 0009576 154.6079 329.0835 14.29909086 52198
GO-32
1 25397U 98043D 13331.91056139 .00000056 00000-0 43254-4 0 2160
2 25397 098.4400 292.7397 0001916 140.7417 280.9589 14.23378819799230
NO-44
1 26931U 01043C 13332.75048531 .00000111 00000-0 75193-4 0 4766
2 26931 067.0503 195.2685 0006477 262.8697 137.6657 14.29994358634950
SO-50
1 27607U 02058C 13332.88629780 .00001026 00000-0 17815-3 0 2343
2 27607 064.5565 122.6563 0032030 094.5522 344.1476 14.73217491587979
CO-55
1 27844U 03031E 13331.95063652 .00000309 00000-0 16140-3 0 7950
2 27844 098.7001 338.6452 0010654 133.7124 282.9877 14.21320944539998
CO-57
1 27848U 03031J 13332.49501693 .00000260 00000-0 13987-3 0 7374
2 27848 098.7092 338.7825 0010559 137.9689 015.0318 14.21033981539990
AO-51
1 28375U 04025K 13332.46467653 .00000215 00000-0 77249-4 0 7112
2 28375 098.2254 281.5203 0082295 238.6404 260.3282 14.41216831494990
CP3
1 31129U 07012N 13332.42381388 .00001110 00000-0 25756-3 0 6106
2 31129 097.9128 315.9414 0098159 276.1890 237.5861 14.54017547350857
CO-65
1 32785U 08021C 13332.81676314 .00001757 00000-0 21505-3 0 8001
2 32785 097.7298 025.4976 0015540 125.7683 285.1630 14.84364078302295
PRISM
1 33493U 09002B 13332.73116358 .00004332 00000-0 48745-3 0 4098
2 33493 098.2339 135.3983 0018446 020.3298 339.8575 14.87114133262369
SOHLA-1
1 33496U 09002E 13332.20853823 .00000554 00000-0 99760-4 0 2092
2 33496 098.1511 087.9757 0007314 153.2924 297.7504 14.70464909259976
SO-67
1 35870U 09049F 13332.75038163 .00006825 00000-0 24462-3 0 6539
2 35870 097.1796 355.6696 0003663 091.4271 035.0443 15.29030175233387
TISAT-1
1 36799U 10035E 13332.74556914 .00003125 00000-0 38079-3 0 6725
2 36799 098.0293 058.4197 0013032 252.6157 107.3591 14.84079150182970
STUDSAT
1 36801U 10035G 13332.16282826 .00004276 00000-0 43419-3 0 7232
2 36801 098.0411 062.6871 0010582 230.0786 130.0002 14.90842034183121
ALMASAT-1
1 38078U 12006B 13332.70356039 .00019518 00000-0 44406-3 0 8332
2 38078 069.4774 176.8457 0660909 294.9785 058.4068 14.34173571 92746
XATCOBEO
1 38082U 12006F 13332.59144123 .00069333 42117-5 10314-2 0 7163
2 38082 069.4696 129.0656 0475565 268.9824 085.6792 14.82005018 94046
SOMP
1 39135U 13015F 13332.53203691 .00005717 00000-0 45041-3 0 3814
2 39135 064.8809 052.0607 0005942 331.4859 028.5813 15.01680987 33492
CUBEBUG-1
1 39153U 13018D 13332.73416704 .00001748 00000-0 25598-3 0 6223
2 39153 098.0628 048.3932 0016956 276.3661 083.5599 14.76838720 31967
ESTCUBE-1
1 39161U 13021C 13332.85255092 .00001422 00000-0 24918-3 0 5920
2 39161 098.1178 050.1623 0009302 316.7844 043.2601 14.69304778 30176
NOAA-10
1 16969U 86073A 13332.55589208 .00000117 00000-0 64712-4 0 5820
2 16969 098.5312 356.6981 0013305 122.7045 038.8906 14.27686993415393
NOAA-11
1 19531U 88089A 13332.27366033 .00000105 00000-0 76218-4 0 6063
2 19531 098.7004 051.3526 0012036 149.1670 211.0213 14.15040387299329
NOAA-12
1 21263U 91032A 13332.50737295 .00000097 00000-0 59324-4 0 634
2 21263 098.6833 356.4810 0014958 102.5110 058.1338 14.25603085171963
MET-3/5
1 21655U 91056A 13332.18759615 .00000420 00000-0 10580-2 0 8423
2 21655 082.5544 138.4371 0014264 081.8072 278.4667 13.17047058 71520
MET-2/21
1 22782U 93055A 13332.50190553 .00000037 00000-0 20061-4 0 9086
2 22782 082.5483 332.5396 0023731 108.0357 048.0752 13.83716961 22368
OKEAN-4
1 23317U 94066A 13331.84585368 .00001478 00000-0 17053-3 0 3880
2 23317 082.5403 256.5764 0022109 049.2618 050.0630 14.84826483 33221
NOAA-14
1 23455U 94089A 13332.47231873 .00000011 00000-0 28810-4 0 5403
2 23455 098.7943 054.3515 0008648 246.9033 241.6150 14.13932898975588
NOAA-15
1 25338U 98030A 13332.51003235 .00000171 00000-0 91397-4 0 9691
2 25338 098.7384 321.9429 0010770 016.8953 140.3326 14.25299939808254
RESURS
1 25394U 98043A 13331.89629418 .00000047 00000-0 38417-4 0 5269
2 25394 098.3850 300.0669 0002458 116.7485 296.2067 14.24349621799668
FENGYUN1
1 25730U 99025A 13332.24153425 .00002680 00000-0 15108-2 0 219
2 25730 098.8939 289.9048 0026528 315.5883 147.7404 14.11002742749178
OKEAN-0
1 25860U 99039A 13332.53150671 .00000709 00000-0 11346-3 0 1087
2 25860 098.0150 293.0009 0001287 074.8681 061.5239 14.74812711772571
NOAA-16
1 26536U 00055A 13332.57916472 .00000250 00000-0 15828-3 0 4578
2 26536 099.0208 026.7919 0010809 037.5359 132.6815 14.12948662679782
NOAA-17
1 27453U 02032A 13332.56628140 .00000149 00000-0 81752-4 0 3627
2 27453 098.3106 337.9160 0012338 048.6000 058.6656 14.24649549594129
NOAA-18
1 28654U 05018A 13332.50671763 .00000235 00000-0 15389-3 0 8512
2 28654 099.1233 303.2729 0015278 106.7822 040.8433 14.11899134439244
NOAA-19
1 33591U 09005A 13332.55442382 .00000310 00000-0 19511-3 0 265
2 33591 098.9228 273.4527 0013515 329.7959 135.6570 14.11590241247682
HUBBLE
1 20580U 90037B 13332.31919740 .00002429 00000-0 15833-3 0 3837
2 20580 028.4711 276.4265 0003059 304.2265 189.7560 15.04263451 94438
ISS
1 25544U 98067A 13333.08520601 .00011129 00000-0 19842-3 0 1235
2 25544 051.6512 011.3418 0001309 100.0010 299.2865 15.50607943860280
CO-58
1 28895U 05043F 13332.15174036 .00000951 00000-0 20094-3 0 6320
2 28895 097.8490 179.3156 0016234 285.7618 074.1793 14.61369045430889
FALCON
1 30776U 07006E 13331.89421965 .00007218 00000-0 40865-3 0 7465
2 30776 035.4308 276.3308 0002800 267.3683 132.5601 15.12425586370201
